Find Starlink 37681

NORAD ID: 100425 Int'l Des: 2026-192 Owner: SPXS Country: US Constellation: starlink operational

現在のビュー

3D地球を読み込み中...

About Starlink 37681

Starlink 37681 (NORAD 100425) is a starlink constellation satellite launched Aug 21, 2026 by SPXS of US. with a mass of 575.00 kg.

次回通過

Passes for default location (London). Set your location on the main map for personalized predictions.

高度履歴

Loading altitude history...

軌道要素

1 A0425U 26192X 26262.74180734 .00039063 00000-0 70597-3 0 9995
2 A0425 53.1597 309.5487 0000716 87.4593 272.6498 15.49346441 5799
Epoch: Sep 19, 2026 • Age: 20 hours

現在のステータス

高度 420.3 km
遠地点 / 近地点 N/A
速度 7.66 km/s
衛星直下点 32.62°N, 122.85°E
打ち上げ日 Aug 21, 2026
運用期間 29 days
タイプ internet

技術仕様

分類 Payload
質量 575.00 kg
乾燥質量 530.00 kg
長さ 0.30 m
スパン 29.00 m
形状 ? Box + pan
製造者 SPXS
バスタイプ Starlink V2MO
フェーズステータス In Orbit
所有者/国 SPXS/US

Most Searched